Time,TemperatureF,DewpointF,PressureIn,WindDirection,WindDirectionDegrees,WindSpeedMPH,WindSpeedGustMPH,Humidity,HourlyPrecipIn,Conditions,Clouds,dailyrainin,SoftwareType,DateUTC
2013-08-29 00:18:00,66.0,63.0,29.96,ENE,73,1.0,8.0,89,0.00,,,0.00,,2013-08-29 04:18:00,
2013-08-29 00:28:00,66.0,63.0,29.96,ENE,57,0.0,6.0,89,0.00,,,0.00,,2013-08-29 04:28:00,
2013-08-29 00:54:00,66.0,63.0,29.98,SSE,150,0.0,7.0,89,0.00,,,0.00,,2013-08-29 04:54:00,
2013-08-29 01:14:00,65.0,62.0,29.98,SE,126,0.0,4.0,90,0.00,,,0.00,,2013-08-29 05:14:00,
2013-08-29 01:23:00,65.0,62.0,29.98,ESE,121,0.0,3.0,90,0.00,,,0.00,,2013-08-29 05:23:00,
2013-08-29 01:52:00,65.0,62.0,29.98,ESE,112,0.0,0.0,91,0.00,,,0.00,,2013-08-29 05:52:00,
2013-08-29 02:02:00,65.0,62.0,29.98,ESE,112,0.0,0.0,91,0.00,,,0.00,,2013-08-29 06:02:00,
2013-08-29 02:12:00,65.0,62.0,29.98,ESE,112,0.0,0.0,91,0.00,,,0.00,,2013-08-29 06:12:00,
2013-08-29 02:22:00,65.0,62.0,29.98,ESE,112,0.0,0.0,91,0.00,,,0.00,,2013-08-29 06:22:00,
2013-08-29 19:53:00,62.0,58.0,30.06,ENE,59,0.0,0.0,87,0.00,,,0.00,,2013-08-29 23:53:00,
2013-08-29 20:22:00,61.0,57.0,30.06,ENE,59,0.0,0.0,87,0.00,,,0.00,,2013-08-30 00:22:00,
2013-08-29 20:52:00,61.0,58.0,30.07,ENE,59,0.0,0.0,89,0.00,,,0.00,,2013-08-30 00:52:00,
2013-08-29 21:12:00,61.0,58.0,30.07,ENE,59,0.0,0.0,89,0.00,,,0.00,,2013-08-30 01:12:00,
2013-08-29 21:22:00,61.0,58.0,30.07,ENE,59,0.0,1.0,89,0.00,,,0.00,,2013-08-30 01:22:00,
2013-08-29 21:42:00,61.0,58.0,30.07,ENE,59,0.0,0.0,89,0.00,,,0.00,,2013-08-30 01:42:00,
2013-08-29 21:52:00,61.0,58.0,30.08,ENE,59,0.0,2.0,90,0.00,,,0.00,,2013-08-30 01:52:00,
2013-08-29 22:11:00,61.0,58.0,30.08,ENE,59,0.0,0.0,89,0.00,,,0.00,,2013-08-30 02:11:00,
2013-08-29 22:22:00,61.0,58.0,30.08,ENE,59,0.0,1.0,89,0.00,,,0.00,,2013-08-30 02:22:00,
2013-08-29 22:42:00,61.0,58.0,30.08,ENE,59,0.0,0.0,89,0.00,,,0.00,,2013-08-30 02:42:00,
2013-08-29 22:52:00,61.0,58.0,30.07,ENE,59,0.0,0.0,89,0.00,,,0.00,,2013-08-30 02:52:00,
2013-08-29 23:22:00,60.0,57.0,30.06,ENE,59,0.0,0.0,89,0.00,,,0.00,,2013-08-30 03:22:00,
2013-08-29 23:55:00,60.0,57.0,30.04,ENE,59,0.0,0.0,89,0.00,,,0.00,,2013-08-30 03:55:00,